[[{"header":{"parameterUnit":"m.s-1","parameterCategory":1,"la1":30.2991,"la2":30.254,"lo1":-89.0895,"lo2":-89.0444,"dy":0.0017,"dx":0.0017,"nx":28,"ny":28,"refTime":"2025-11-13T03:00:00:Z","depth":0,"parameterNumber":2,"parameterNumberName":"U-component_of_WINDS"},"data":[0,0,0,0,0,0,0,0,0,0,0,0,0,0,0,0,0,0,0,0,0,0,0,0,0,0,0,0,0,0,0,0,0,0,0,0,0,0,0,0,0,0,0,0,0,0,0,0,0,0,0,0,0,0,0,0,0,0,0.3615,0.3616,0,0.363,0.363,0.3631,0.3618,0.3618,0.3617,0.3617,0.3632,0.3633,0.3634,0,0,0,0,0,0,0,0,0,0,0,0,0,0.3578,0.3578,0.3615,0.3616,0.3616,0.363,0.363,0.3631,0.3618,0.3618,0.3617,0.3616,0.3632,0.3633,0.3634,0,0,0,0,0,0,0,0,0,0,0,0,0,0.3593,0.3579,0.3615,0.3611,0.3611,0.363,0.363,0.3631,0.3618,0.3617,0.3617,0.3616,0.3631,0.3633,0.3634,0.3658,0,0,0.3638,0.3639,0,0,0,0,0,0,0,0,0.3593,0.3595,0.3612,0.3612,0.3611,0.3622,0.3623,0.364,0.3618,0.3616,0.3616,0.3616,0.3629,0.3631,0.3635,0.3659,0.366,0.3638,0.3639,0.364,0.364,0,0,0,0,0,0,0,0.3592,0.3594,0.3621,0.3612,0.3612,0.3609,0.3611,0.3626,0.3627,0.3616,0.3615,0.3617,0.3629,0.3634,0.3635,0.366,0.3638,0.3639,0.364,0.3641,0.3706,0.3707,0,0,0,0,0,0,0.3591,0.3593,0.3621,0.3622,0.36,0.3611,0.3612,0.3619,0.3626,0.3627,0.3617,0.3616,0.3632,0.3634,0.3636,0.3666,0.364,0.3641,0.3642,0.3706,0.3707,0.3708,0,0,0,0,0,0,0.359,0.3593,0.362,0.3607,0.3611,0.3612,0.362,0.362,0.3625,0.3628,0.3628,0.3622,0.3631,0.3634,0.3653,0.3667,0.3642,0.3643,0.3704,0.3706,0.3707,0.3726,0,0,0,0,0,0,0.3589,0.3593,0.3602,0.3608,0.3611,0.3637,0.3621,0.3621,0.3627,0.3626,0.3632,0.3633,0.3631,0.3651,0.3655,0.3668,0.3644,0.3703,0.3705,0.3707,0.3725,0.3728,0.3731,0,0,0,0,0,0.3588,0.3606,0.3602,0.3606,0.3622,0.3638,0.364,0.3637,0.3628,0.3637,0.364,0.3632,0.3665,0.3653,0.3657,0.3671,0.3702,0.3705,0.3707,0.3723,0.3728,0.3731,0,0,0,0,0,0,0.3601,0.3607,0.3602,0.3623,0.363,0.3635,0.3647,0.3642,0.3651,0.365,0.3646,0.3648,0.3669,0.3672,0.3659,0.3696,0.3682,0.3685,0.3693,0.3698,0.3701,0.37,0.3645,0,0,0,0,0,0.3607,0.3619,0.3623,0.3641,0.3645,0.3645,0.3652,0.365,0.3656,0.3659,0.3663,0.367,0.3682,0.369,0.3701,0.3725,0.3727,0.3736,0.374,0.3743,0.3746,0.3761,0.3765,0.3715,0.3715,0.3714,0,0,0.3618,0.3623,0.363,0.3644,0.3649,0.3662,0.3648,0.3661,0.3672,0.3661,0.368,0.3683,0.3691,0.3714,0.3723,0.3717,0.376,0.3745,0.3748,0.3749,0.3763,0.3768,0.3772,0.3716,0.3716,0.3715,0,0,0.3646,0.365,0.3666,0.3672,0.368,0.3681,0.3685,0.3691,0.3693,0.3712,0.3705,0.3717,0.3737,0.3744,0.375,0.3782,0.3777,0.3786,0.3804,0.3819,0.3823,0.3826,0.384,0.3844,0.3788,0.3788,0.3788,0,0.3659,0.3678,0.3675,0.3691,0.3698,0.3689,0.3707,0.3712,0.3724,0.3729,0.3721,0.3748,0.3752,0.3777,0.3785,0.3789,0.3795,0.3785,0.3822,0.3826,0.3829,0.3842,0.3847,0.379,0.3789,0.3789,0.3789,0,0.3695,0.3709,0.3721,0.3733,0.3741,0.3757,0.3758,0.3766,0.3764,0.3766,0.3786,0.3792,0.3805,0.381,0.3807,0.3835,0.3831,0.3823,0.3809,0.3835,0.3847,0.3852,0.3791,0.3791,0.3791,0.379,0,0,0.3732,0.3743,0.3748,0.3754,0.3763,0.3773,0.379,0.3803,0.3811,0.3819,0.3834,0.3852,0.3845,0.3852,0.385,0.3863,0.3891,0.3854,0.3854,0.3862,0.3925,0.3932,0.3937,0.3887,0.3888,0.3889,0.3924,0,0.3761,0.379,0.3789,0.3816,0.3829,0.3822,0.3837,0.3845,0.3847,0.3859,0.3862,0.3876,0.3865,0.3869,0.3881,0.3885,0.3904,0.3882,0.3902,0.3903,0.3902,0.3943,0.395,0.3984,0.3929,0.393,0.393,0,0.3799,0.381,0.3839,0.3847,0.3853,0.3866,0.3879,0.389,0.39,0.3901,0.3909,0.3906,0.3924,0.3909,0.3935,0.392,0.3928,0.3931,0.3933,0.3935,0.3919,0.3949,0.3994,0.4,0.3937,0.3937,0.3936,0,0.3825,0.3846,0.3867,0.3872,0.3882,0.3892,0.3897,0.3905,0.3914,0.3925,0.3931,0.3944,0.3952,0.3963,0.3963,0.3952,0.399,0.3975,0.3993,0.3993,0.4001,0.4001,0.4051,0.4004,0.4004,0.4004,0.4004,0,0.3859,0.3877,0.3879,0.3892,0.3913,0.3911,0.3932,0.3936,0.3944,0.3958,0.3953,0.3966,0.3966,0.398,0.398,0.4003,0.4006,0.4008,0.4008,0.4009,0.4009,0.4015,0.4014,0.4005,0.4005,0.4005,0.4005,0,0.3892,0.3893,0.3916,0.3924,0.3927,0.3942,0.395,0.3962,0.3965,0.3983,0.3987,0.3991,0.4008,0.4009,0.4028,0.4029,0.4056,0.4053,0.4053,0.4053,0.4072,0.4071,0.4128,0.4137,0.4083,0.4084,0.4084,0,0.3914,0.3928,0.3938,0.3948,0.3953,0.3968,0.3977,0.3977,0.3986,0.3999,0.4011,0.4027,0.404,0.4067,0.4072,0.4087,0.4085,0.4104,0.4087,0.4089,0.4088,0.4088,0.409,0.4108,0.4108,0.4109,0.4109,0,0.3953,0.3954,0.3967,0.3981,0.3993,0.4004,0.4014,0.4022,0.4023,0.4035,0.4052,0.4062,0.4082,0.4099,0.4114,0.412,0.4116,0.4114,0.412,0.4122,0.4122,0.4124,0.4064,0.4113,0.4113,0.4113,0.4112,0.4112,0.3982,0.3996,0.4006,0.4021,0.4029,0.4039,0.4052,0.4057,0.4071,0.4088,0.4087,0.4106,0.4117,0.4137,0.4144,0.416,0.4154,0.4161,0.4163,0.4165,0.4168,0.4119,0.4162,0.4162,0.4162,0.4162,0.4162,0,0.4023,0.403,0.4044,0.406,0.4072,0.4067,0.4079,0.409,0.4107,0.4117,0.4131,0.4151,0.4168,0.4175,0.4192,0.4203,0.4202,0.4208,0.4208,0.421,0.4172,0.4166,0.4209,0.4209,0.4209,0.4209,0.4209,0.4209,0.4046,0.4069,0.4071,0.4098,0.4104,0.4124,0.4131,0.4141,0.415,0.4173,0.4187,0.4192,0.4201,0.4219,0.4235,0.4236,0.4244,0.4251,0.4252,0.4217,0.4212,0.4207,0.4203,0.4252,0.4252,0.4289,0.4289,0.4289]},{"header":{"parameterUnit":"m.s-1","parameterCategory":1,"la1":30.2991,"la2":30.254,"lo1":-89.0895,"lo2":-89.0444,"dy":0.0017,"dx":0.0017,"nx":28,"ny":28,"refTime":"2025-11-13T03:00:00:Z","depth":0,"parameterNumber":3,"parameterNumberName":"V-component_of_WINDS"},"data":[0,0,0,0,0,0,0,0,0,0,0,0,0,0,0,0,0,0,0,0,0,0,0,0,0,0,0,0,0,0,0,0,0,0,0,0,0,0,0,0,0,0,0,0,0,0,0,0,0,0,0,0,0,0,0,0,0,0,-1.0522,-1.0523,0,-1.0606,-1.0607,-1.0608,-1.0607,-1.0606,-1.0605,-1.0604,-1.0691,-1.0694,-1.0697,0,0,0,0,0,0,0,0,0,0,0,0,0,-1.0361,-1.0364,-1.0522,-1.0523,-1.0524,-1.0606,-1.0607,-1.0609,-1.0607,-1.0606,-1.0604,-1.0603,-1.069,-1.0694,-1.0698,0,0,0,0,0,0,0,0,0,0,0,0,0,-1.0437,-1.0365,-1.0522,-1.0533,-1.0535,-1.0606,-1.0607,-1.0609,-1.0607,-1.0606,-1.0604,-1.0602,-1.0688,-1.0693,-1.0698,-1.0764,0,0,-1.0714,-1.0716,0,0,0,0,0,0,0,0,-1.0432,-1.0443,-1.053,-1.0532,-1.0535,-1.0594,-1.0583,-1.0661,-1.0608,-1.058,-1.0604,-1.0602,-1.066,-1.0667,-1.0687,-1.0768,-1.0772,-1.0714,-1.0717,-1.072,-1.0721,0,0,0,0,0,0,0,-1.0427,-1.0439,-1.0555,-1.0532,-1.0534,-1.0535,-1.0544,-1.0598,-1.0629,-1.0582,-1.0582,-1.0592,-1.0661,-1.0682,-1.0689,-1.0773,-1.0714,-1.0719,-1.0722,-1.0724,-1.0914,-1.0916,0,0,0,0,0,0,-1.0419,-1.0435,-1.0553,-1.0558,-1.0478,-1.0539,-1.0549,-1.0577,-1.0628,-1.0634,-1.0594,-1.0592,-1.0674,-1.0683,-1.0692,-1.0774,-1.0719,-1.0724,-1.0727,-1.0912,-1.0914,-1.0916,0,0,0,0,0,0,-1.0416,-1.043,-1.0549,-1.0496,-1.0512,-1.0544,-1.0575,-1.0579,-1.0601,-1.0637,-1.0642,-1.0609,-1.0673,-1.0685,-1.0746,-1.0777,-1.0727,-1.0731,-1.0909,-1.0913,-1.0915,-1.0936,0,0,0,0,0,0,-1.0411,-1.0429,-1.0453,-1.0497,-1.0514,-1.0601,-1.0577,-1.0582,-1.0609,-1.0608,-1.0653,-1.0659,-1.0673,-1.0739,-1.0751,-1.0783,-1.0735,-1.0907,-1.0911,-1.0914,-1.0933,-1.0939,-1.0945,0,0,0,0,0,-1.0406,-1.0455,-1.0455,-1.0469,-1.0546,-1.0603,-1.0613,-1.0628,-1.0612,-1.0637,-1.0661,-1.0657,-1.0771,-1.0745,-1.0759,-1.0792,-1.0905,-1.091,-1.0914,-1.093,-1.0938,-1.0945,0,0,0,0,0,0,-1.0414,-1.0461,-1.0461,-1.0526,-1.0561,-1.0603,-1.0635,-1.0636,-1.0676,-1.0673,-1.069,-1.07,-1.0762,-1.0783,-1.0754,-1.086,-1.0836,-1.0844,-1.0843,-1.0851,-1.0857,-1.0851,-1.0739,0,0,0,0,0,-1.0424,-1.0466,-1.0505,-1.0559,-1.0576,-1.0603,-1.0628,-1.0637,-1.0674,-1.0688,-1.0716,-1.0752,-1.0796,-1.0825,-1.0867,-1.0936,-1.0946,-1.0966,-1.0972,-1.0977,-1.0983,-1.1023,-1.1032,-1.0931,-1.0931,-1.0931,0,0,-1.0444,-1.0475,-1.05,-1.0562,-1.0589,-1.0634,-1.0615,-1.0662,-1.0696,-1.0696,-1.0756,-1.0777,-1.0819,-1.0885,-1.0915,-1.0904,-1.1013,-1.0982,-1.0986,-1.099,-1.1028,-1.1038,-1.1046,-1.0934,-1.0934,-1.0933,0,0,-1.0503,-1.053,-1.0579,-1.0608,-1.065,-1.0668,-1.068,-1.0722,-1.0737,-1.0797,-1.0799,-1.0839,-1.0914,-1.0944,-1.0969,-1.1042,-1.1041,-1.1055,-1.1087,-1.1125,-1.1133,-1.1141,-1.1168,-1.1177,-1.1061,-1.1061,-1.1061,0,-1.0523,-1.0589,-1.0604,-1.0652,-1.068,-1.0682,-1.0732,-1.0759,-1.0813,-1.0833,-1.082,-1.0915,-1.0943,-1.1017,-1.1035,-1.1055,-1.107,-1.105,-1.1131,-1.1138,-1.1145,-1.1172,-1.1182,-1.1063,-1.1063,-1.1063,-1.1062,0,-1.0612,-1.0658,-1.0692,-1.0745,-1.0777,-1.0825,-1.0849,-1.0879,-1.0885,-1.0904,-1.0967,-1.1001,-1.1051,-1.1069,-1.1075,-1.1144,-1.1137,-1.1127,-1.1104,-1.1156,-1.1181,-1.1191,-1.1065,-1.1065,-1.1064,-1.1064,0,0,-1.0678,-1.074,-1.0752,-1.0777,-1.0825,-1.0861,-1.0911,-1.096,-1.0986,-1.1024,-1.1067,-1.1131,-1.1124,-1.1152,-1.1162,-1.1196,-1.1253,-1.1183,-1.1184,-1.1196,-1.1333,-1.1341,-1.1352,-1.1253,-1.1255,-1.1256,-1.133,0,-1.0744,-1.0831,-1.0847,-1.0924,-1.0968,-1.0972,-1.1015,-1.105,-1.107,-1.111,-1.1132,-1.1178,-1.1163,-1.1181,-1.1214,-1.1239,-1.1281,-1.1234,-1.1294,-1.1296,-1.1284,-1.1365,-1.1372,-1.144,-1.134,-1.1342,-1.1343,0,-1.0831,-1.0872,-1.0953,-1.0997,-1.1016,-1.1055,-1.1102,-1.114,-1.118,-1.1193,-1.1225,-1.1232,-1.1285,-1.1259,-1.1333,-1.1301,-1.1326,-1.1342,-1.1346,-1.1352,-1.1323,-1.1375,-1.1462,-1.1473,-1.1358,-1.1357,-1.1356,0,-1.0873,-1.0948,-1.1007,-1.1028,-1.108,-1.1108,-1.1131,-1.1169,-1.1198,-1.124,-1.1259,-1.1306,-1.1332,-1.1369,-1.1389,-1.1368,-1.1462,-1.1437,-1.1475,-1.1474,-1.1494,-1.1493,-1.1588,-1.1509,-1.1509,-1.1509,-1.1509,0,-1.0945,-1.0995,-1.1027,-1.1063,-1.112,-1.1138,-1.1194,-1.1217,-1.1251,-1.1293,-1.1299,-1.1338,-1.1361,-1.1404,-1.142,-1.1479,-1.1491,-1.1503,-1.1507,-1.1503,-1.1502,-1.152,-1.1517,-1.1512,-1.1511,-1.1511,-1.151,0,-1.1001,-1.1024,-1.1089,-1.1134,-1.1146,-1.1186,-1.1225,-1.1261,-1.1281,-1.1334,-1.1347,-1.1379,-1.143,-1.1453,-1.1516,-1.1527,-1.1595,-1.1595,-1.1582,-1.1583,-1.162,-1.1616,-1.1731,-1.1748,-1.1657,-1.1658,-1.1658,0,-1.1046,-1.1084,-1.1134,-1.1162,-1.1186,-1.1231,-1.1261,-1.1281,-1.1313,-1.1362,-1.1393,-1.1444,-1.1486,-1.1567,-1.1596,-1.1645,-1.1647,-1.1684,-1.1654,-1.165,-1.1649,-1.1647,-1.1652,-1.1689,-1.169,-1.1691,-1.1691,0,-1.1123,-1.1133,-1.1176,-1.1224,-1.126,-1.1298,-1.1336,-1.1359,-1.1385,-1.142,-1.1472,-1.1505,-1.157,-1.1621,-1.1672,-1.1696,-1.1699,-1.17,-1.1712,-1.1709,-1.17,-1.1707,-1.1598,-1.1698,-1.1697,-1.1697,-1.1696,-1.1696,-1.1175,-1.1211,-1.1251,-1.13,-1.133,-1.1366,-1.1403,-1.1428,-1.1472,-1.1526,-1.1535,-1.1591,-1.1632,-1.1701,-1.1727,-1.1772,-1.1764,-1.178,-1.1784,-1.1788,-1.1791,-1.1692,-1.1781,-1.1781,-1.1781,-1.1781,-1.1781,0,-1.1254,-1.1281,-1.1325,-1.1378,-1.1417,-1.1415,-1.1458,-1.149,-1.1539,-1.1577,-1.1619,-1.168,-1.173,-1.1764,-1.1815,-1.1845,-1.1847,-1.1858,-1.1856,-1.1862,-1.1795,-1.1781,-1.1855,-1.1855,-1.1855,-1.1855,-1.1855,-1.1855,-1.1299,-1.136,-1.1375,-1.1451,-1.1477,-1.1532,-1.1557,-1.1591,-1.1621,-1.1689,-1.1731,-1.1753,-1.1789,-1.1844,-1.189,-1.1899,-1.1918,-1.1929,-1.1938,-1.1874,-1.1867,-1.1859,-1.1846,-1.1933,-1.1933,-1.2001,-1.2002,-1.2002]}]]